Location: Dzhigaura
(41.9240°N, 44.7788°E)
Time: 11:24:24
(UTC+00:00)

Daily predictions for brighter satellites

Satellite Brightness Start Highest point End
(mag) Time Altitude Azimuth Time Altitude Azimuth Time Altitude Azimuth
OBJECT-B 0.9 16:46:57 10° S 16:50:08 79° WSW 16:53:21 10° NNW
Cosmos 1842 Rocket 3.6 16:49:55 10° N 16:54:25 82° E 16:58:54 10° S
Cosmos 2278 3.8 16:49:22 10° NNW 16:55:03 72° ENE 17:00:42 10° SSE
Cosmos 2360 Rocket 4.2 16:52:32 10° NNE 16:55:27 14° NE 16:58:22 10° ENE
USA 186 2.6 16:53:29 10° S 16:56:22 45° W 16:59:04 10° NNW
Atlas Centaur 2 3.3 16:55:49 10° SW 16:59:12 18° S 17:02:09 10° SE
SL-19 R/B 4.4 16:59:15 10° SSE 17:02:55 81° WSW 17:07:11 10° NNW
Resurs 1-3 3.6 17:00:45 10° SSE 17:05:05 67° ENE 17:09:27 10° N
Cosmos 1606 2.8 17:07:06 10° N 17:10:53 80° W 17:14:41 10° S
Nadezhda 4 Rocket 4.0 17:06:36 10° S 17:12:43 75° E 17:18:58 10° N
Cosmos 2221 3.3 17:10:25 10° NNW 17:14:39 54° W 17:18:52 10° S
Cosmos 158 Rocket 3.9 17:11:18 10° SSW 17:16:25 76° ESE 17:21:43 10° NNE
Cosmos 2151 3.1 17:12:23 10° S 17:16:31 55° E 17:20:43 10° NNE
Cosmos 1980 Rocket 2.7 17:12:08 10° NNW 17:17:41 61° WSW 17:23:14 10° S
SJ-6B 3.9 17:14:36 10° S 17:18:08 42° W 17:21:43 10° NNW
Cosmos 923 Rocket 4.3 17:14:05 10° S 17:19:10 47° ESE 17:24:17 10° NNE
SPOT 1/Viking Rocket 4.3 17:17:11 13° SE 17:21:18 36° ENE 17:26:02 10° N
Cosmos 2084 3.8 17:17:53 10° S 17:21:34 35° ESE 17:25:21 10° NE
ISS -3.6 17:20:37 10° WNW 17:23:59 66° SW 17:26:17 18° SE
GP-B 4.2 17:22:56 10° NNE 17:26:44 27° E 17:29:07 17° SE
ERS-2 2.0 17:23:16 10° NNE 17:26:56 82° ESE 17:30:33 10° SSW
Cosmos 2322 Rocket 3.0 17:25:14 10° N 17:30:28 38° ENE 17:34:17 17° ESE
Helios 1A Rocket 4.4 17:27:26 10° SSW 17:31:09 35° W 17:34:55 10° NNW
Cosmos 371 Rocket 3.7 17:27:34 10° NNW 17:32:20 63° WSW 17:37:05 10° S
Meteor 2-15 Rocket 4.5 17:30:26 10° N 17:36:29 65° E 17:41:41 14° SSE
SL-27 R/B 4.0 17:37:50 19° E 17:37:50 19° E 17:40:24 10° NE
Spot 2 Rocket 4.2 17:42:41 20° SE 17:45:36 38° ENE 17:50:18 10° N
CARTOSAT-1 4.4 17:45:18 23° ESE 17:47:16 34° ENE 17:51:11 10° N
USA 276 2.0 17:44:20 10° WNW 17:47:30 83° NNE 17:48:42 34° ESE
Cosmos 2219 Rocket 4.3 17:44:33 10° NNE 17:47:33 14° NE 17:50:32 10° ENE
Cosmos 1680 Rocket 3.4 17:47:54 10° S 17:53:09 72° ESE 17:58:24 10° NNE
Cosmos 2112 Rocket 4.0 17:48:24 10° S 17:53:37 62° ESE 17:58:49 10° NNE
Resurs 01 Rocket 2.1 17:53:42 14° S 17:57:27 59° W 18:01:52 10° NNW
NOSS 2-1 (E) 2.8 17:56:36 10° SSW 17:59:55 58° ESE 18:03:10 10° NE
SL-16 R/B 2.2 17:55:30 10° NNW 18:01:13 85° ENE 18:04:35 26° SSE
Terra 3.1 18:01:13 22° E 18:02:49 26° ENE 18:06:44 10° N
Meteor 2-3 Rocket 4.0 17:57:42 10° SSW 18:03:20 70° W 18:09:05 10° N
SPOT 3 Rocket 3.8 18:01:04 17° S 18:05:04 71° WSW 18:10:18 10° NNW
ATLAS 5 CENTAUR R/B 4.3 18:01:54 10° N 18:05:21 17° NE 18:09:07 10° ENE
Cosmos 1151 Rocket 3.1 18:02:02 10° N 18:06:21 63° E 18:08:05 34° SSE
Cosmos 2237 4.4 18:05:25 10° NNW 18:11:05 60° ENE 18:13:45 31° SE
CZ-2C R/B 3.6 18:08:14 10° NNE 18:12:45 85° WNW 18:16:16 16° SSW
Gbstr 26 Del rocket 2.7 18:10:55 10° WNW 18:14:40 72° SW 18:15:42 46° SSE
Cosmos 1766 Rocket 3.4 18:13:41 25° S 18:16:13 87° E 18:20:37 10° N
SPOT 5 2.9 18:18:20 39° ESE 18:19:27 50° ENE 18:23:43 10° N
Cosmos 1328 Rocket 3.5 18:15:20 10° N 18:19:46 67° E 18:21:03 43° SE
Cosmos 1271 Rocket 3.7 18:16:37 10° NNW 18:20:26 44° W 18:22:35 23° SSW
ARIANE 5 R/B 2.6 18:21:25 42° SE 18:22:48 69° ENE 18:27:14 10° N
Meteor 2-6 Rocket 4.1 18:20:18 10° N 18:25:40 63° ENE 18:27:34 39° SE
S3M 4.4 18:19:52 10° N 18:26:04 49° ENE 18:28:27 34° SE
Cosmos 1655 Rocket 4.4 18:24:23 33° SE 18:26:43 46° E 18:32:47 10° NNE
Cosmos 292 Rocket 4.3 18:24:35 10° N 18:29:09 43° ENE 18:30:11 37° E
Cosmos 1862 3.2 18:28:34 58° SSE 18:29:12 71° E 18:33:10 10° NNE
Meteor 2-21 4.4 18:26:16 24° S 18:30:08 80° E 18:36:19 10° N
Cosmos 1624 Rocket 3.9 18:28:52 10° NNW 18:34:07 82° ENE 18:35:46 45° SSE
Cosmos 1782 3.7 18:30:46 10° NNW 18:34:35 43° W 18:36:08 29° SW
ATLAS 3B R/B 4.3 18:28:46 10° NW 18:34:42 28° WSW 18:40:03 13° SSW
Cosmos 2360 Rocket 2.1 18:34:44 10° NNW 18:40:24 79° ENE 18:42:09 46° SE
Cosmos 220 Rocket 4.3 18:36:37 10° NNW 18:40:56 61° WSW 18:41:56 46° SSW
BREEZE-M DEB (TANK) 3.3 18:37:20 10° WNW 18:41:00 61° SSW 18:43:57 35° SSE
USA 267 4.0 18:35:36 10° ENE 18:40:16 30° ESE 18:40:16 30° ESE
Cosmos 1420 Rocket 4.1 18:37:21 10° NNW 18:42:40 65° ENE 18:43:57 49° SE
Cosmos 1174 4.4 18:44:22 10° NNW 18:46:29 35° NNE 18:46:29 35° NNE
COSMOS 2455 2.7 18:51:48 41° S 18:53:49 66° ESE 18:59:48 10° NE
Cosmos 1833 4.3 18:51:19 17° SSW 18:55:52 76° WNW 19:01:41 10° NNE
Cosmos 1500 Rocket 3.6 18:57:42 63° ENE 18:57:42 63° ENE 19:01:54 10° NNE
Meteor 1-27 Rocket 3.9 18:54:19 10° N 18:59:56 58° ENE 19:00:56 51° ESE
Meteor 2-16 Rocket 4.3 18:58:23 42° S 19:00:36 88° E 19:06:43 10° N
Cosmos 2333 Rocket 2.4 18:55:43 10° NNW 19:01:18 57° ENE 19:02:24 49° ESE
ERS-1 Rocket 3.2 19:00:26 46° SSW 19:01:41 61° W 19:06:40 10° NNW
Cosmos 1452 Rocket 3.8 18:59:55 10° N 19:05:03 51° ENE 19:05:38 49° E
Cosmos 1812 3.8 19:01:34 10° NNW 19:05:10 37° W 19:05:28 36° WSW
Cosmos 2297 Rocket 4.3 19:08:34 12° ENE 19:08:34 12° ENE 19:09:32 10° ENE
Cosmos 2322 3.8 19:02:54 10° NNW 19:08:36 62° ENE 19:09:35 54° ESE
Cosmos 2237 Rocket 4.0 19:09:53 10° N 19:14:02 20° NE 19:15:53 17° ENE
Cosmos 2322 Rocket 3.4 19:09:29 10° NW 19:14:23 31° WSW 19:16:06 26° SW
H-2A R/B 3.6 19:10:31 10° NNE 19:14:12 67° NNE 19:14:12 67° NNE
Cosmos 2056 Rocket 4.3 19:09:49 10° NNW 19:14:50 43° WSW 19:15:56 38° SW
Cosmos 1743 Rocket 3.6 19:18:39 76° WNW 19:18:39 76° WNW 19:23:00 10° N
Cosmos 2227 Rocket 4.4 19:20:55 11° ENE 19:20:55 11° ENE 19:21:29 10° ENE
Sich 1 4.1 19:20:17 35° NE 19:20:17 35° NE 19:23:13 10° NNE
IRIDIUM 104 4.2 19:26:16 10° N 19:31:31 84° E 19:31:34 83° E
Cosmos 2219 Rocket 2.0 19:26:47 10° NNW 19:32:25 82° ENE 19:32:44 78° ESE
Cosmos 2266 Rocket 4.4 19:35:25 38° SW 19:37:31 56° W 19:43:40 10° N
Cosmos 489 Rocket 4.3 19:37:34 68° S 19:38:24 81° ESE 19:44:47 10° NNE
Terra 2.9 19:40:07 34° WSW 19:40:23 34° W 19:44:44 10° NNW
IRIDIUM 114 4.2 19:35:25 10° N 19:40:39 81° W 19:40:42 81° W
Cosmos 2285 Rocket 3.8 19:34:21 10° NNW 19:40:42 88° ENE 19:41:26 72° SSE
Meteor 1-25 Rocket 4.1 19:41:34 72° E 19:41:34 72° E 19:47:00 10° NNE
Spot 4 4.4 19:44:51 49° NE 19:44:51 49° NE 19:49:02 10° N
SL-16 R/B 4.5 19:42:04 10° WNW 19:44:28 13° W 19:46:27 11° WSW
Cosmos 2315 Rocket 4.0 19:38:48 10° N 19:45:09 77° W 19:46:05 65° SSW
IRIDIUM 103 4.4 19:44:36 10° N 19:49:47 66° W 19:49:49 66° W
ATLAS 5 CENTAUR R/B 2.5 19:45:13 10° NNW 19:50:52 67° NE 19:51:36 62° E
Cosmos 494 Rocket 4.0 19:52:49 75° NNW 19:52:49 75° NNW 19:57:37 10° NNE
Cosmos 2228 Rocket 4.1 19:54:18 10° NNW 19:57:48 42° WNW 19:57:48 42° WNW
COSMOS 2428 2.7 19:53:58 10° NNW 19:59:31 74° W 19:59:31 74° W
NOSS 3-1 (C) 4.3 19:52:40 10° NW 20:00:18 59° WSW 20:02:01 51° SSW
Meteor 1-19 Rocket 4.2 19:58:38 10° N 20:03:53 72° NE 20:03:53 72° NE
CZ-3B R/B 2.9 20:00:15 10° NW 20:06:29 50° N 20:06:29 50° N
Cosmos 1745 Rocket 4.4 20:09:58 48° E 20:09:58 48° E 20:15:45 10° NNE
USA 229 DEB 3.8 20:08:46 10° NW 20:16:10 72° WSW 20:17:02 66° SSW
USA 229 3.8 20:08:52 10° NW 20:16:15 72° WSW 20:17:08 66° SSW
Cosmos 2219 4.0 20:18:35 41° ENE 20:18:35 41° ENE 20:22:47 10° NE
ALOS 2 3.7 20:21:59 42° N 20:21:59 42° N 20:25:01 10° N
Cosmos 2360 Rocket 4.3 20:20:51 10° WNW 20:23:37 14° W 20:23:55 14° W
USA 267 3.3 20:18:08 10° NE 20:24:40 74° NW 20:27:32 36° WSW
Cosmos 1302 Rocket 4.4 20:20:38 10° NNW 20:25:09 56° NNE 20:25:09 56° NNE
Meteor 1-14 Rocket 4.3 20:26:41 68° NE 20:26:41 68° NE 20:31:40 10° NNE
Nadezhda 1 Rocket 4.1 20:22:09 10° N 20:28:32 66° E 20:28:38 66° E
NOSS 0 Rocket 4.0 20:29:03 10° NNW 20:34:55 69° W 20:34:55 69° W
Cosmos 1980 3.8 20:30:35 10° NNW 20:35:42 72° N 20:35:42 72° N
NOSS 3-1 (A) 4.3 20:29:06 10° NW 20:36:43 57° WSW 20:37:35 55° SW
Timation 2 Rocket 4.4 20:42:19 47° ENE 20:42:19 47° ENE 20:47:10 10° NE
Cosmos 2333 Rocket 4.0 20:41:02 10° NW 20:44:24 20° W 20:44:24 20° W
Lacrosse 5 2.5 20:46:41 52° N 20:46:41 52° N 20:50:54 10° NE
Cosmos 2297 Rocket 2.3 20:50:20 70° NNW 20:50:20 70° NNW 20:55:31 10° NNE
USA 234 3.3 20:55:40 54° E 20:57:10 72° NE 21:03:42 10° NW
Cosmos 2237 Rocket 2.6 20:52:59 10° NNW 20:57:41 58° WNW 20:57:41 58° WNW
Thor Agena Rocket 4.2 20:54:41 10° NNE 20:58:26 46° NE 20:58:26 46° NE
Cosmos 2227 Rocket 2.4 21:02:43 69° N 21:02:43 69° N 21:07:44 10° NNE
Cosmos 2263 Rocket 3.9 21:15:53 22° E 21:15:53 22° E 21:19:14 10° NE
Cosmos 2219 Rocket 4.4 21:13:05 10° WNW 21:14:26 12° W 21:14:26 12° W
Cosmos 2181 Rocket 4.1 21:16:50 10° N 21:23:06 64° E 21:23:14 64° E
Cosmos 2251 Rocket 4.1 21:27:46 53° NE 21:27:46 53° NE 21:31:57 10° NNE
SL-16 R/B 2.4 21:22:33 10° NNW 21:27:47 69° NNE 21:27:47 69° NNE
BREEZE-M DEB (TANK) 4.0 21:22:57 10° W 21:35:08 - ENE 21:31:02 57° NNW
ATLAS 5 CENTAUR R/B 4.1 21:30:35 10° WNW 21:33:05 20° W 21:33:05 20° W
Meteor 1-11 Rocket 4.0 21:43:29 58° NW 21:43:29 58° NW 21:48:24 10° N
Cosmos 1709 Rocket 4.4 21:46:00 52° W 21:46:11 52° WNW 21:52:24 10° N
Helios 1A 4.5 21:50:25 34° NE 21:50:25 34° NE 21:53:30 10° N
ASTEX 1 3.8 21:55:46 59° NNE 21:55:46 59° NNE 21:59:53 10° N
Cosmos 407 Rocket 3.9 22:03:18 55° ENE 22:03:18 55° ENE 22:07:50 10° NNE
Cosmos 1733 Rocket 4.0 22:04:35 46° NNE 22:04:35 46° NNE 22:07:51 10° NNE
CZ-2D R/B 3.1 21:59:07 10° NNE 22:04:10 38° E 22:04:13 38° E
SL-8 R/B 4.4 22:05:05 52° N 22:05:05 52° N 22:09:18 10° ENE
Cosmos 2344 3.6 22:05:04 54° SSE 22:06:00 58° ESE 22:13:24 10° NE
Cosmos 2082 4.4 22:15:42 41° WNW 22:16:09 42° WNW 22:21:35 10° NNE
CZ-4C R/B 3.0 22:10:01 10° NW 22:17:28 88° NE 22:21:14 38° SE
Cosmos 2184 Rocket 3.9 22:21:22 72° WSW 22:21:47 75° W 22:28:08 10° N
NOSS 3-3 (A) 3.7 22:22:26 81° WSW 22:22:43 86° NW 22:29:10 10° NE
NOSS 3-3 (C) 3.7 22:22:33 82° WSW 22:22:49 86° NW 22:29:17 10° NE
Meteor 2-12 Rocket 4.3 22:22:34 72° WSW 22:22:54 74° W 22:29:04 10° N
Cosmos 1707 4.3 22:23:27 10° N 22:26:15 33° NE 22:26:15 33° NE
Lacrosse 5 4.2 22:26:06 10° WNW 22:29:46 19° NNW 22:33:25 10° NNE
Cosmos 2154 Rocket 3.8 22:29:44 73° S 22:30:25 88° E 22:36:41 10° N
ATLAS CENTAUR R/B 2.4 22:37:07 40° N 22:37:07 40° N 22:39:53 10° NNE
Cosmos 1140 Rocket 3.5 22:36:08 75° NW 22:36:08 75° NW 22:41:17 10° NNE
Cosmos 2074 Rocket 4.2 22:36:28 53° W 22:36:58 55° WNW 22:43:04 10° N
BREEZE-M R/B 4.4 22:33:01 10° WNW 22:37:01 51° NNE 22:49:25 10° E
Resurs 1-4 Rocket 2.0 22:34:39 10° NNE 22:39:59 81° ESE 22:40:13 78° SE
USA 234 4.4 22:42:59 25° W 22:42:59 25° W 22:46:17 10° WNW
Cosmos 2227 Rocket 4.4 22:44:30 11° WNW 22:47:02 14° NW 22:50:03 10° NNW
Iridium 4 Rocket 3.8 22:41:27 10° N 22:47:16 82° E 22:48:21 61° SSE
Cosmos 1603 3.5 22:50:42 10° NNW 22:56:21 87° WSW 22:57:29 59° SSE
SL-16 R/B 2.4 22:55:16 55° S 22:56:43 81° WSW 23:02:57 10° NNW
Milstar 3 4.2 22:58:45 22° SSE 22:58:45 22° SSE 23:02:18 10° ESE
USA 290 4.1 22:55:24 10° N 22:57:59 30° NE 22:57:59 30° NE
Cosmos 2263 Rocket 2.5 22:57:34 47° W 22:58:23 51° WNW 23:03:57 10° NNE
Cosmos 1818 4.3 22:56:29 10° NNW 23:01:51 52° NE 23:07:09 10° SE
Cosmos 1190 Rocket 4.2 23:01:37 54° W 23:02:04 56° WNW 23:07:19 10° NNE
Cosmos 1238 Rocket 3.8 23:03:30 36° NNW 23:03:30 36° NNW 23:06:16 10° N
ADEOS II 2.3 22:59:30 10° NNE 23:04:45 63° ESE 23:05:55 50° SSE
In-Cosmos 22 4.2 22:59:03 10° N 23:04:51 88° E 23:06:21 52° SSE
ADEOS Rocket 2.6 23:05:10 55° S 23:06:26 85° WSW 23:11:58 10° NNW
SL-16 R/B 4.2 23:08:26 10° WNW 23:09:38 13° WNW 23:09:38 13° WNW
Helios 1B rocket 2.4 23:07:36 10° N 23:11:32 77° NW 23:11:32 77° NW
Cosmos 1954 Rocket 3.9 23:11:36 62° SW 23:12:22 73° WNW 23:17:43 10° NNE
Meteor 1-28 Rocket 4.0 23:14:08 42° ESE 23:14:42 47° ENE 23:18:17 10° N
Cosmos 1626 3.1 23:21:14 10° N 23:24:46 44° ENE 23:25:42 36° ESE
Sich 1 Rocket 4.5 23:24:12 31° SE 23:25:44 44° E 23:29:58 10° NNE
ARIANE 5 R/B 4.3 23:23:29 10° NE 23:27:49 26° E 23:31:47 12° SSE
X-37B 3.3 23:30:52 13° ESE 23:30:52 13° ESE 23:31:34 10° ESE
Cosmos 1975 Rocket 3.0 23:27:11 10° N 23:31:34 82° E 23:32:42 49° SSE
Landsat 4 3.7 23:29:50 10° NNE 23:33:32 69° ESE 23:33:53 64° SE
Cosmos 2218 Rocket 4.0 23:32:32 36° S 23:35:23 87° W 23:41:43 10° N
Cosmos 1025 Rocket 3.8 23:31:24 10° N 23:35:38 50° E 23:38:24 20° SSE
Orbus 7S? 4.5 23:33:01 32° WSW 23:36:50 71° NW 23:40:56 10° NE
MINOTAUR 4 R/B 3.9 23:39:52 73° W 23:39:52 73° W 23:43:21 10° NNW
Cosmos 1763 Rocket 3.5 23:34:27 10° NNW 23:39:48 86° ENE 23:43:47 18° SSE
IDEFIX/ARIANE 42P 2.6 23:36:07 10° NNE 23:41:19 77° ESE 23:43:37 34° S
BREEZE-M DEB (TANK) 3.4 23:41:40 44° N 23:41:40 44° N 23:43:39 10° NE
CZ-2D R/B 3.3 23:39:24 10° N 23:44:03 30° WNW 23:45:32 26° W
Cosmos 1943 3.8 23:39:11 10° NW 23:44:20 36° WSW 23:44:45 35° WSW
Cosmos 2341 Rocket 4.3 23:42:52 35° SW 23:44:59 49° WNW 23:50:59 10° N
Cosmos 1340 3.1 23:42:04 10° NNW 23:45:18 45° WNW 23:45:18 45° WNW
KORONAS-FOTON 4.0 23:42:04 10° NNW 23:45:53 52° W 23:45:53 52° W
Cosmos 1733 3.1 23:53:04 55° SW 23:53:48 73° W 23:57:37 10° N
Cosmos 540 Rocket 3.8 23:49:33 10° NNW 23:54:43 65° ENE 23:59:50 10° SSE
